Location: Carabito
(9.8355°N, 67.9249°W)
Time: 22:30:03
(UTC+00:00)

Nadezhda 3 Rocket - Pass Details

Date: 23 May 2024
Orbit: 956 x 998 km, 82.9° (Epoch: 23 June)

Event Time Altitude Azimuth Distance (km) Brightness Sun altitude
Rises 08:40:11 0° 344° (NNW) 3,695 7.2 -21.1°
Reaches altitude 10° 08:42:50 10° 337° (NNW) 2,741 6.4 -20.5°
Maximum altitude 08:48:41 42° 268° (W) 1,373 4.3 -19.2°
Enters shadow 08:51:47 25° 215° (SW) 1,857 5.0 -18.5°
